| time (UTC) | temp F | wind direction | speed MPH | gust MPH | rain 1hr in | rain 24hr in | rain mn in | humidity % | barometer mb |
| 20260510210934 | 93 | 160 | 3.0 | 6.0 | 0.00 | 0.00 | 0.00 | 25 | 1014.1 |
| 20260510210536 | 93 | 157 | 3.0 | 8.0 | 0.00 | 0.00 | 0.00 | 25 | 1014.2 |
| 20260510204934 | 90 | 200 | 4.0 | 13.0 | 0.00 | 0.00 | 0.00 | 25 | 1014.1 |
| 20260510204527 | 90 | 187 | 4.0 | 14.0 | 0.00 | 0.00 | 0.00 | 25 | 1014.1 |
| 20260510204125 | 92 | 135 | 9.0 | 9.0 | 0.00 | 0.00 | 0.00 | 25 | 1014.1 |
| 20260510203323 | 90 | 180 | 1.0 | 10.0 | 0.00 | 0.00 | 0.00 | 26 | 1014.2 |
| 20260510202925 | 91 | 132 | 11.0 | 0.0 | 0.00 | 0.00 | 0.00 | 26 | 1014.2 |
| 20260510202522 | 91 | 128 | 7.0 | 10.0 | 0.00 | 0.00 | 0.00 | 26 | 1014.2 |
| 20260510202119 | 91 | 60 | 2.0 | 8.0 | 0.00 | 0.00 | 0.00 | 26 | 1014.2 |
| 20260510201717 | 89 | 135 | 4.0 | 13.0 | 0.00 | 0.00 | 0.00 | 26 | 1014.2 |
| 20260510200514 | 89 | 135 | 8.0 | 9.0 | 0.00 | 0.00 | 0.00 | 26 | 1014.2 |
| 20260510195712 | 93 | 209 | 3.0 | 14.0 | 0.00 | 0.00 | 0.00 | 26 | 1014.2 |
| 20260510194908 | 89 | 33 | 0.0 | 16.0 | 0.00 | 0.00 | 0.00 | 27 | 1014.3 |
| 20260510194512 | 90 | 292 | 1.0 | 7.0 | 0.00 | 0.00 | 0.00 | 26 | 1014.4 |
| 20260510193304 | 87 | 135 | 5.0 | 8.0 | 0.00 | 0.00 | 0.00 | 27 | 1014.5 |
| 20260510192936 | 86 | 211 | 1.0 | 9.0 | 0.00 | 0.00 | 0.00 | 27 | 1014.5 |
| 20260510192902 | 86 | 211 | 1.0 | 9.0 | 0.00 | 0.00 | 0.00 | 27 | 1014.5 |
| 20260510192100 | 89 | 135 | 6.0 | 7.0 | 0.00 | 0.00 | 0.00 | 27 | 1014.6 |
| 20260510191257 | 90 | 225 | 3.0 | 6.0 | 0.00 | 0.00 | 0.00 | 27 | 1014.6 |
| 20260510190053 | 87 | 195 | 5.0 | 7.0 | 0.00 | 0.00 | 0.00 | 28 | 1014.5 |
| 20260510185659 | 86 | 132 | 3.0 | 9.0 | 0.00 | 0.00 | 0.00 | 28 | 1014.6 |
| 20260510184850 | 87 | 135 | 6.0 | 7.0 | 0.00 | 0.00 | 0.00 | 28 | 1014.7 |
| 20260510184057 | 86 | 180 | 1.0 | 0.0 | 0.00 | 0.00 | 0.00 | 29 | 1014.7 |
| 20260510184055 | 86 | 180 | 1.0 | 6.0 | 0.00 | 0.00 | 0.00 | 29 | 1014.7 |
| 20260510183651 | 85 | 168 | 1.0 | 6.0 | 0.00 | 0.00 | 0.00 | 29 | 1014.8 |
| 20260510183244 | 85 | 126 | 3.0 | 5.0 | 0.00 | 0.00 | 0.00 | 29 | 1014.7 |
| 20260510181639 | 83 | 135 | 7.0 | 7.0 | 0.00 | 0.00 | 0.00 | 29 | 1014.7 |
| 20260510174830 | 79 | 135 | 5.0 | 6.0 | 0.00 | 0.00 | 0.00 | 31 | 1014.6 |
| 20260510173627 | 79 | 101 | 4.0 | 7.0 | 0.00 | 0.00 | 0.00 | 31 | 1014.6 |
| 20260510173225 | 79 | 130 | 5.0 | 6.0 | 0.00 | 0.00 | 0.00 | 32 | 1014.6 |
| 20260510172422 | 78 | 103 | 5.0 | 6.0 | 0.00 | 0.00 | 0.00 | 32 | 1014.7 |
| 20260510172021 | 79 | 135 | 4.0 | 7.0 | 0.00 | 0.00 | 0.00 | 33 | 1014.7 |
| 20260510171620 | 79 | 288 | 2.0 | 5.0 | 0.00 | 0.00 | 0.00 | 33 | 1014.7 |
| 20260510171219 | 77 | 150 | 3.0 | 7.0 | 0.00 | 0.00 | 0.00 | 34 | 1014.7 |
| 20260510170817 | 77 | 165 | 2.0 | 6.0 | 0.00 | 0.00 | 0.00 | 34 | 1014.7 |
| 20260510165613 | 77 | 42 | 0.0 | 7.0 | 0.00 | 0.00 | 0.00 | 35 | 1014.7 |
| 20260510165212 | 76 | 101 | 1.0 | 4.0 | 0.00 | 0.00 | 0.00 | 36 | 1014.7 |
| 20260510164811 | 75 | 119 | 1.0 | 6.0 | 0.00 | 0.00 | 0.00 | 37 | 1014.7 |
| 20260510164411 | 75 | 45 | 3.0 | 7.0 | 0.00 | 0.00 | 0.00 | 37 | 1014.6 |
| 20260510164008 | 76 | 99 | 4.0 | 4.0 | 0.00 | 0.00 | 0.00 | 38 | 1014.5 |
| 20260510163607 | 76 | 96 | 4.0 | 6.0 | 0.00 | 0.00 | 0.00 | 39 | 1014.7 |
| 20260510163206 | 77 | 93 | 0.0 | 3.0 | 0.00 | 0.00 | 0.00 | 40 | 1014.6 |
| 20260510162002 | 76 | 173 | 4.0 | 4.0 | 0.00 | 0.00 | 0.00 | 42 | 1014.6 |
| 20260510161600 | 76 | 45 | 1.0 | 3.0 | 0.00 | 0.00 | 0.00 | 43 | 1014.5 |
| 20260510161159 | 76 | 225 | 1.0 | 2.0 | 0.00 | 0.00 | 0.00 | 45 | 1014.5 |
| 20260510160758 | 75 | 227 | 0.0 | 2.0 | 0.00 | 0.00 | 0.00 | 46 | 1014.5 |
| 20260510155956 | 73 | 180 | 1.0 | 2.0 | 0.00 | 0.00 | 0.00 | 48 | 1014.5 |
| 20260510155554 | 72 | 217 | 1.0 | 1.0 | 0.00 | 0.00 | 0.00 | 49 | 1014.5 |
| 20260510155152 | 71 | 166 | 2.0 | 3.0 | 0.00 | 0.00 | 0.00 | 50 | 1014.5 |
| 20260510153548 | 66 | 241 | 0.0 | 3.0 | 0.00 | 0.00 | 0.00 | 54 | 1014.7 |
| 20260510153147 | 66 | 220 | 2.0 | 3.0 | 0.00 | 0.00 | 0.00 | 54 | 1014.7 |
| 20260510152745 | 65 | 274 | 2.0 | 2.0 | 0.00 | 0.00 | 0.00 | 54 | 1014.6 |
| 20260510151541 | 63 | 292 | 1.0 | 2.0 | 0.00 | 0.00 | 0.00 | 56 | 1014.6 |
| 20260510151145 | 62 | 200 | 1.0 | 2.0 | 0.00 | 0.00 | 0.00 | 56 | 1014.7 |
| 20260510150739 | 62 | 274 | 0.0 | 2.0 | 0.00 | 0.00 | 0.00 | 56 | 1014.7 |
| 20260510150337 | 62 | 270 | 0.0 | 3.0 | 0.00 | 0.00 | 0.00 | 57 | 1014.6 |
| 20260510145937 | 61 | 274 | 3.0 | 3.0 | 0.00 | 0.00 | 0.00 | 57 | 1014.6 |
| 20260510145136 | 61 | 182 | 0.0 | 3.0 | 0.00 | 0.00 | 0.00 | 57 | 1014.5 |
| 20260510144331 | 60 | 228 | 1.0 | 2.0 | 0.00 | 0.00 | 0.00 | 58 | 1014.5 |
| 20260510143929 | 59 | 186 | 0.0 | 1.0 | 0.00 | 0.00 | 0.00 | 57 | 1014.5 |
| 20260510143529 | 59 | 83 | 0.0 | 1.0 | 0.00 | 0.00 | 0.00 | 57 | 1014.4 |
| 20260510142325 | 59 | 15 | 1.0 | 3.0 | 0.00 | 0.00 | 0.00 | 57 | 1014.4 |
| 20260510141115 | 59 | 195 | 1.0 | 2.0 | 0.00 | 0.00 | 0.00 | 57 | 1014.3 |
| 20260510140712 | 59 | 222 | 1.0 | 2.0 | 0.00 | 0.00 | 0.00 | 57 | 1014.3 |
| 20260510140314 | 59 | 180 | 1.0 | 2.0 | 0.00 | 0.00 | 0.00 | 57 | 1014.3 |
| 20260510133502 | 58 | 279 | 1.0 | 1.0 | 0.00 | 0.00 | 0.00 | 58 | 1014.1 |
| 20260510132305 | 58 | 274 | 1.0 | 2.0 | 0.00 | 0.00 | 0.00 | 58 | 1014.1 |
| 20260510131858 | 58 | 274 | 1.0 | 2.0 | 0.00 | 0.00 | 0.00 | 58 | 1014.1 |
| 20260510131457 | 58 | 310 | 1.0 | 2.0 | 0.00 | 0.00 | 0.00 | 57 | 1014.0 |
| 20260510131056 | 58 | 315 | 0.0 | 2.0 | 0.00 | 0.00 | 0.00 | 57 | 1014.1 |
| 20260510130654 | 58 | 252 | 0.0 | 2.0 | 0.00 | 0.00 | 0.00 | 57 | 1014.1 |
| 20260510125853 | 58 | 292 | 0.0 | 1.0 | 0.00 | 0.00 | 0.00 | 57 | 1014.0 |
| 20260510123047 | 58 | 182 | 1.0 | 2.0 | 0.00 | 0.00 | 0.00 | 57 | 1014.0 |
| 20260510120234 | 58 | 232 | 0.0 | 1.0 | 0.00 | 0.00 | 0.00 | 57 | 1014.0 |
| 20260510115832 | 58 | 270 | 0.0 | 1.0 | 0.00 | 0.00 | 0.00 | 57 | 1014.0 |
| 20260510115037 | 58 | 182 | 0.0 | 3.0 | 0.00 | 0.00 | 0.00 | 57 | 1013.9 |
| 20260510114627 | 58 | 217 | 1.0 | 2.0 | 0.00 | 0.00 | 0.00 | 57 | 1014.0 |
| 20260510114227 | 58 | 42 | 0.0 | 1.0 | 0.00 | 0.00 | 0.00 | 57 | 1014.0 |
| 20260510113017 | 57 | 180 | 2.0 | 2.0 | 0.00 | 0.00 | 0.00 | 57 | 1014.0 |
| 20260510112615 | 57 | 168 | 2.0 | 3.0 | 0.00 | 0.00 | 0.00 | 57 | 1013.9 |
| 20260510112215 | 57 | 218 | 1.0 | 2.0 | 0.00 | 0.00 | 0.00 | 57 | 1014.0 |
| 20260510111411 | 57 | 135 | 2.0 | 4.0 | 0.00 | 0.00 | 0.00 | 57 | 1013.9 |
| 20260510110611 | 57 | 81 | 4.0 | 4.0 | 0.00 | 0.00 | 0.00 | 57 | 1013.8 |
| 20260510110609 | 57 | 81 | 4.0 | 4.0 | 0.00 | 0.00 | 0.00 | 57 | 1013.8 |
| 20260510110207 | 57 | 90 | 1.0 | 4.0 | 0.00 | 0.00 | 0.00 | 57 | 1013.9 |
| 20260510105405 | 57 | 126 | 4.0 | 4.0 | 0.00 | 0.00 | 0.00 | 57 | 1013.8 |
| 20260510105004 | 57 | 76 | 3.0 | 4.0 | 0.00 | 0.00 | 0.00 | 57 | 1013.9 |
| 20260510104602 | 57 | 126 | 3.0 | 3.0 | 0.00 | 0.00 | 0.00 | 57 | 1013.9 |
| 20260510104201 | 57 | 135 | 2.0 | 2.0 | 0.00 | 0.00 | 0.00 | 57 | 1013.9 |
| 20260510103759 | 57 | 184 | 1.0 | 1.0 | 0.00 | 0.00 | 0.00 | 57 | 1013.9 |
| 20260510102957 | 57 | 135 | 2.0 | 3.0 | 0.00 | 0.00 | 0.00 | 57 | 1013.9 |
| 20260510102556 | 57 | 112 | 2.0 | 3.0 | 0.00 | 0.00 | 0.00 | 57 | 1013.8 |
| 20260510102155 | 57 | 130 | 2.0 | 3.0 | 0.00 | 0.00 | 0.00 | 57 | 1013.7 |
| 20260510101353 | 57 | 144 | 1.0 | 3.0 | 0.00 | 0.00 | 0.00 | 57 | 1013.8 |
| 20260510095349 | 57 | 135 | 0.0 | 1.0 | 0.00 | 0.00 | 0.00 | 57 | 1013.9 |
| 20260510093740 | 57 | 126 | 4.0 | 5.0 | 0.00 | 0.00 | 0.00 | 58 | 1014.0 |
| 20260510092939 | 57 | 135 | 4.0 | 7.0 | 0.00 | 0.00 | 0.00 | 58 | 1013.9 |
| 20260510092538 | 57 | 141 | 4.0 | 6.0 | 0.00 | 0.00 | 0.00 | 58 | 1013.9 |
| 20260510092137 | 57 | 117 | 4.0 | 5.0 | 0.00 | 0.00 | 0.00 | 57 | 1013.9 |
| 20260510091736 | 57 | 135 | 3.0 | 4.0 | 0.00 | 0.00 | 0.00 | 57 | 1013.9 |
| 20260510091334 | 57 | 92 | 3.0 | 6.0 | 0.00 | 0.00 | 0.00 | 57 | 1013.9 |
| 20260510090530 | 56 | 135 | 3.0 | 4.0 | 0.00 | 0.00 | 0.00 | 57 | 1014.0 |
| 20260510090129 | 56 | 135 | 2.0 | 2.0 | 0.00 | 0.00 | 0.00 | 57 | 1013.9 |
| 20260510085727 | 56 | 101 | 2.0 | 3.0 | 0.00 | 0.00 | 0.00 | 56 | 1013.8 |
| 20260510084928 | 56 | 114 | 3.0 | 3.0 | 0.00 | 0.00 | 0.00 | 56 | 1013.8 |
| 20260510084524 | 56 | 105 | 2.0 | 2.0 | 0.00 | 0.00 | 0.00 | 56 | 1013.8 |
| 20260510084125 | 56 | 135 | 2.0 | 3.0 | 0.00 | 0.00 | 0.00 | 56 | 1013.8 |
| 20260510083320 | 57 | 135 | 3.0 | 4.0 | 0.00 | 0.00 | 0.00 | 56 | 1013.8 |
| 20260510083000 | 57 | 126 | 2.0 | 3.0 | 0.00 | 0.00 | 0.00 | 56 | 1013.8 |
| 20260510082918 | 57 | 126 | 2.0 | 3.0 | 0.00 | 0.00 | 0.00 | 56 | 1013.8 |
| 20260510082601 | 57 | 135 | 2.0 | 3.0 | 0.00 | 0.00 | 0.00 | 56 | 1013.8 |
| 20260510082522 | 57 | 135 | 2.0 | 3.0 | 0.00 | 0.00 | 0.00 | 56 | 1013.8 |
| 20260510082116 | 57 | 135 | 3.0 | 3.0 | 0.00 | 0.00 | 0.00 | 56 | 1013.9 |
| 20260510081715 | 57 | 135 | 2.0 | 3.0 | 0.00 | 0.00 | 0.00 | 56 | 1013.9 |
| 20260510081313 | 57 | 81 | 3.0 | 3.0 | 0.00 | 0.00 | 0.00 | 56 | 1013.9 |
| 20260510081012 | 57 | 135 | 1.0 | 2.0 | 0.00 | 0.00 | 0.00 | 56 | 1014.0 |
| 20260510080912 | 57 | 135 | 1.0 | 2.0 | 0.00 | 0.00 | 0.00 | 56 | 1014.0 |
| 20260510075709 | 58 | 135 | 2.0 | 3.0 | 0.00 | 0.00 | 0.00 | 55 | 1014.2 |
| 20260510075307 | 58 | 135 | 2.0 | 2.0 | 0.00 | 0.00 | 0.00 | 55 | 1014.1 |
| 20260510074905 | 58 | 135 | 1.0 | 2.0 | 0.00 | 0.00 | 0.00 | 55 | 1014.1 |
| 20260510074504 | 58 | 135 | 2.0 | 3.0 | 0.00 | 0.00 | 0.00 | 55 | 1014.1 |
| 20260510073301 | 58 | 135 | 2.0 | 3.0 | 0.00 | 0.00 | 0.00 | 55 | 1014.2 |
| 20260510072900 | 58 | 135 | 2.0 | 2.0 | 0.00 | 0.00 | 0.00 | 55 | 1014.3 |
| 20260510072458 | 58 | 135 | 1.0 | 2.0 | 0.00 | 0.00 | 0.00 | 55 | 1014.3 |
| 20260510072058 | 58 | 135 | 1.0 | 3.0 | 0.00 | 0.00 | 0.00 | 55 | 1014.4 |
| 20260510071655 | 58 | 121 | 2.0 | 3.0 | 0.00 | 0.00 | 0.00 | 55 | 1014.3 |
| 20260510070854 | 58 | 135 | 1.0 | 1.0 | 0.00 | 0.00 | 0.00 | 54 | 1014.3 |
| 20260510065248 | 58 | 135 | 2.0 | 3.0 | 0.00 | 0.00 | 0.00 | 54 | 1014.2 |
| 20260510064847 | 58 | 135 | 2.0 | 3.0 | 0.00 | 0.00 | 0.00 | 54 | 1014.3 |
| 20260510064445 | 58 | 135 | 2.0 | 2.0 | 0.00 | 0.00 | 0.00 | 54 | 1014.3 |
| 20260510064044 | 58 | 81 | 1.0 | 1.0 | 0.00 | 0.00 | 0.00 | 54 | 1014.3 |
| 20260510063235 | 58 | 135 | 1.0 | 1.0 | 0.00 | 0.00 | 0.00 | 54 | 1014.3 |
| 20260510060833 | 59 | 81 | 0.0 | 0.0 | 0.00 | 0.00 | 0.00 | 53 | 1014.3 |
| 20260510060431 | 59 | 42 | 0.0 | 1.0 | 0.00 | 0.00 | 0.00 | 53 | 1014.3 |
| 20260510060025 | 59 | 45 | 0.0 | 1.0 | 0.00 | 0.00 | 0.00 | 53 | 1014.3 |
| 20260510055624 | 60 | 135 | 1.0 | 2.0 | 0.00 | 0.00 | 0.00 | 53 | 1014.4 |
| 20260510055223 | 59 | 135 | 1.0 | 1.0 | 0.00 | 0.00 | 0.00 | 53 | 1014.3 |
| 20260510054822 | 60 | 135 | 0.0 | 0.0 | 0.00 | 0.00 | 0.00 | 52 | 1014.3 |
| 20260510054420 | 60 | 180 | 0.0 | 1.0 | 0.00 | 0.00 | 0.00 | 52 | 1014.3 |
| 20260510054021 | 60 | 180 | 1.0 | 1.0 | 0.00 | 0.00 | 0.00 | 52 | 1014.3 |
| 20260510053216 | 60 | 191 | 1.0 | 1.0 | 0.00 | 0.00 | 0.00 | 52 | 1014.3 |
| 20260510052817 | 60 | 182 | 0.0 | 1.0 | 0.00 | 0.00 | 0.00 | 52 | 1014.4 |
| 20260510052416 | 60 | 180 | 0.0 | 1.0 | 0.00 | 0.00 | 0.00 | 52 | 1014.4 |
| 20260510052413 | 60 | 180 | 0.0 | 1.0 | 0.00 | 0.00 | 0.00 | 52 | 1014.4 |
| 20260510052012 | 60 | 135 | 0.0 | 2.0 | 0.00 | 0.00 | 0.00 | 52 | 1014.4 |
| 20260510051611 | 60 | 186 | 0.0 | 1.0 | 0.00 | 0.00 | 0.00 | 51 | 1014.4 |
| 20260510051211 | 60 | 230 | 0.0 | 1.0 | 0.00 | 0.00 | 0.00 | 51 | 1014.5 |
| 20260510050810 | 60 | 135 | 1.0 | 1.0 | 0.00 | 0.00 | 0.00 | 51 | 1014.5 |
| 20260510050407 | 60 | 303 | 0.0 | 0.0 | 0.00 | 0.00 | 0.00 | 51 | 1014.4 |
| 20260510044804 | 61 | 78 | 1.0 | 3.0 | 0.00 | 0.00 | 0.00 | 50 | 1014.3 |
| 20260510044401 | 61 | 130 | 3.0 | 3.0 | 0.00 | 0.00 | 0.00 | 50 | 1014.2 |
| 20260510044001 | 61 | 135 | 2.0 | 3.0 | 0.00 | 0.00 | 0.00 | 50 | 1014.2 |
| 20260510043600 | 61 | 135 | 3.0 | 4.0 | 0.00 | 0.00 | 0.00 | 50 | 1014.3 |
| 20260510043204 | 61 | 135 | 3.0 | 5.0 | 0.00 | 0.00 | 0.00 | 49 | 1014.2 |
| 20260510042756 | 61 | 126 | 4.0 | 4.0 | 0.00 | 0.00 | 0.00 | 49 | 1014.2 |
| 20260510042354 | 61 | 123 | 4.0 | 7.0 | 0.00 | 0.00 | 0.00 | 49 | 1014.1 |
| 20260510041953 | 61 | 121 | 5.0 | 5.0 | 0.00 | 0.00 | 0.00 | 49 | 1014.2 |
| 20260510041554 | 61 | 123 | 3.0 | 4.0 | 0.00 | 0.00 | 0.00 | 48 | 1014.1 |
| 20260510041150 | 61 | 119 | 2.0 | 3.0 | 0.00 | 0.00 | 0.00 | 48 | 1014.0 |
| 20260510040749 | 61 | 128 | 4.0 | 4.0 | 0.00 | 0.00 | 0.00 | 48 | 1014.0 |
| 20260510035546 | 62 | 114 | 5.0 | 5.0 | 0.00 | 0.00 | 0.00 | 47 | 1013.8 |
| 20260510035144 | 62 | 112 | 3.0 | 4.0 | 0.00 | 0.00 | 0.00 | 46 | 1013.8 |
| 20260510034742 | 62 | 114 | 3.0 | 6.0 | 0.00 | 0.00 | 0.00 | 46 | 1013.8 |
| 20260510034341 | 62 | 128 | 5.0 | 6.0 | 0.00 | 0.00 | 0.00 | 46 | 1013.7 |
| 20260510033940 | 62 | 108 | 4.0 | 6.0 | 0.00 | 0.00 | 0.00 | 45 | 1013.7 |
| 20260510033539 | 63 | 105 | 5.0 | 6.0 | 0.00 | 0.00 | 0.00 | 45 | 1013.6 |
| 20260510032739 | 64 | 123 | 4.0 | 4.0 | 0.00 | 0.00 | 0.00 | 44 | 1013.5 |
| 20260510032335 | 64 | 112 | 2.0 | 5.0 | 0.00 | 0.00 | 0.00 | 44 | 1013.5 |
| 20260510031934 | 64 | 110 | 4.0 | 6.0 | 0.00 | 0.00 | 0.00 | 43 | 1013.4 |
| 20260510031532 | 64 | 110 | 4.0 | 5.0 | 0.00 | 0.00 | 0.00 | 43 | 1013.2 |
| 20260510031131 | 65 | 135 | 6.0 | 7.0 | 0.00 | 0.00 | 0.00 | 42 | 1013.2 |
| 20260510030731 | 65 | 135 | 5.0 | 9.0 | 0.00 | 0.00 | 0.00 | 41 | 1013.2 |
| 20260510030329 | 66 | 112 | 3.0 | 7.0 | 0.00 | 0.00 | 0.00 | 41 | 1013.1 |
| 20260510025927 | 66 | 123 | 6.0 | 7.0 | 0.00 | 0.00 | 0.00 | 40 | 1013.1 |
| 20260510025526 | 67 | 135 | 5.0 | 7.0 | 0.00 | 0.00 | 0.00 | 40 | 1013.0 |
| 20260510025126 | 67 | 135 | 5.0 | 6.0 | 0.00 | 0.00 | 0.00 | 39 | 1012.9 |
| 20260510024724 | 67 | 135 | 7.0 | 7.0 | 0.00 | 0.00 | 0.00 | 38 | 1012.8 |
| 20260510024322 | 67 | 110 | 6.0 | 7.0 | 0.00 | 0.00 | 0.00 | 38 | 1012.8 |
| 20260510023921 | 68 | 108 | 6.0 | 6.0 | 0.00 | 0.00 | 0.00 | 38 | 1012.8 |
| 20260510023524 | 68 | 128 | 6.0 | 7.0 | 0.00 | 0.00 | 0.00 | 37 | 1012.6 |
| 20260510023118 | 69 | 90 | 5.0 | 6.0 | 0.00 | 0.00 | 0.00 | 36 | 1012.7 |
| 20260510021916 | 70 | 126 | 7.0 | 9.0 | 0.00 | 0.00 | 0.00 | 34 | 1012.5 |
| 20260510021111 | 71 | 94 | 7.0 | 10.0 | 0.00 | 0.00 | 0.00 | 33 | 1012.4 |
| 20260510020710 | 72 | 99 | 14.0 | 17.0 | 0.00 | 0.00 | 0.00 | 33 | 1012.3 |
| 20260510020312 | 72 | 112 | 4.0 | 12.0 | 0.00 | 0.00 | 0.00 | 32 | 1012.3 |
| 20260510015508 | 73 | 112 | 8.0 | 13.0 | 0.00 | 0.00 | 0.00 | 32 | 1012.2 |
| 20260510015106 | 74 | 108 | 7.0 | 13.0 | 0.00 | 0.00 | 0.00 | 31 | 1012.3 |
| 20260510014704 | 75 | 135 | 6.0 | 13.0 | 0.00 | 0.00 | 0.00 | 31 | 1012.3 |
| 20260510014303 | 75 | 135 | 8.0 | 9.0 | 0.00 | 0.00 | 0.00 | 30 | 1012.3 |
| 20260510013903 | 76 | 135 | 8.0 | 9.0 | 0.00 | 0.00 | 0.00 | 30 | 1012.2 |
| 20260510013059 | 76 | 139 | 8.0 | 12.0 | 0.00 | 0.00 | 0.00 | 30 | 1012.2 |
| 20260510012659 | 76 | 135 | 9.0 | 19.0 | 0.00 | 0.00 | 0.00 | 29 | 1012.1 |
| 20260510012256 | 77 | 135 | 7.0 | 12.0 | 0.00 | 0.00 | 0.00 | 29 | 1012.1 |
| 20260510011855 | 78 | 135 | 8.0 | 14.0 | 0.00 | 0.00 | 0.00 | 29 | 1012.2 |
| 20260510011454 | 78 | 139 | 5.0 | 8.0 | 0.00 | 0.00 | 0.00 | 29 | 1012.1 |
| 20260510011053 | 79 | 135 | 6.0 | 13.0 | 0.00 | 0.00 | 0.00 | 28 | 1012.1 |
| 20260510010652 | 79 | 135 | 13.0 | 13.0 | 0.00 | 0.00 | 0.00 | 28 | 1012.0 |
| 20260510004645 | 81 | 130 | 7.0 | 9.0 | 0.00 | 0.00 | 0.00 | 27 | 1012.0 |
| 20260510003845 | 81 | 121 | 6.0 | 9.0 | 0.00 | 0.00 | 0.00 | 27 | 1012.0 |
| 20260510003441 | 82 | 108 | 7.0 | 8.0 | 0.00 | 0.00 | 0.00 | 26 | 1012.1 |
| 20260510003039 | 83 | 135 | 9.0 | 10.0 | 0.00 | 0.00 | 0.00 | 26 | 1012.1 |
| 20260510002641 | 84 | 144 | 6.0 | 8.0 | 0.00 | 0.00 | 0.00 | 26 | 1012.1 |
| 20260510002237 | 84 | 147 | 6.0 | 8.0 | 0.00 | 0.00 | 0.00 | 25 | 1012.1 |
| 20260510001839 | 85 | 148 | 7.0 | 9.0 | 0.00 | 0.00 | 0.00 | 26 | 1012.0 |
| 20260510001435 | 85 | 135 | 9.0 | 11.0 | 0.00 | 0.00 | 0.00 | 25 | 1012.0 |
| 20260510001033 | 85 | 135 | 7.0 | 9.0 | 0.00 | 0.00 | 0.00 | 25 | 1012.0 |
| 20260510000233 | 85 | 139 | 4.0 | 10.0 | 0.00 | 0.00 | 0.00 | 25 | 1012.2 |
| 20260509235829 | 86 | 139 | 9.0 | 11.0 | 0.00 | 0.00 | 0.00 | 25 | 1012.1 |
| 20260509235430 | 86 | 135 | 11.0 | 11.0 | 0.00 | 0.00 | 0.00 | 25 | 1012.1 |
| 20260509234626 | 86 | 171 | 2.0 | 9.0 | 0.00 | 0.00 | 0.00 | 25 | 1012.1 |
| 20260509234225 | 86 | 153 | 9.0 | 13.0 | 0.00 | 0.00 | 0.00 | 24 | 1012.1 |
| 20260509233824 | 85 | 180 | 4.0 | 10.0 | 0.00 | 0.00 | 0.00 | 25 | 1012.1 |
| 20260509233422 | 85 | 135 | 8.0 | 16.0 | 0.00 | 0.00 | 0.00 | 25 | 1012.2 |
| 20260509233021 | 86 | 123 | 7.0 | 13.0 | 0.00 | 0.00 | 0.00 | 24 | 1012.1 |
| 20260509232619 | 85 | 99 | 6.0 | 15.0 | 0.00 | 0.00 | 0.00 | 24 | 1012.3 |
| 20260509231416 | 87 | 135 | 9.0 | 15.0 | 0.00 | 0.00 | 0.00 | 25 | 1012.3 |
| 20260509225412 | 90 | 177 | 6.0 | 7.0 | 0.00 | 0.00 | 0.00 | 25 | 1012.4 |
| 20260509225008 | 89 | 180 | 3.0 | 8.0 | 0.00 | 0.00 | 0.00 | 25 | 1012.4 |
| 20260509224212 | 86 | 135 | 6.0 | 9.0 | 0.00 | 0.00 | 0.00 | 25 | 1012.5 |
| 20260509222159 | 85 | 112 | 9.0 | 10.0 | 0.00 | 0.00 | 0.00 | 25 | 1012.7 |
| 20260509221400 | 86 | 139 | 10.0 | 11.0 | 0.00 | 0.00 | 0.00 | 25 | 1012.8 |
| 20260509220553 | 87 | 146 | 9.0 | 10.0 | 0.00 | 0.00 | 0.00 | 25 | 1012.9 |
| 20260509220152 | 86 | 184 | 5.0 | 9.0 | 0.00 | 0.00 | 0.00 | 25 | 1013.0 |
| 20260509215752 | 85 | 173 | 4.0 | 16.0 | 0.00 | 0.00 | 0.00 | 25 | 1013.0 |
| 20260509214948 | 85 | 135 | 6.0 | 16.0 | 0.00 | 0.00 | 0.00 | 25 | 1013.1 |
| 20260509213746 | 85 | 135 | 8.0 | 10.0 | 0.00 | 0.00 | 0.00 | 26 | 1013.2 |
| 20260509213348 | 86 | 135 | 9.0 | 10.0 | 0.00 | 0.00 | 0.00 | 26 | 1013.3 |
| 20260509212554 | 88 | 138 | 3.0 | 11.0 | 0.00 | 0.00 | 0.00 | 26 | 1013.3 |